Clinton, NC

10:43 PM EDT on September 29, 2016 (GMT -0400)
Sampson County

Weather History for KCTZ - May, 2013

Change the Weather History Date:

Tuesday, May 21, 2013

  Actual Average (KFAY) Record (KFAY)
Temperature  
Mean Temperature 76 °F 72 °F  
Max Temperature 83 °F 84 °F 99 °F (1941)
Min Temperature 68 °F 61 °F 44 °F (2002)
Degree Days  
Heating Degree Days 0 0  
Month to date heating degree days 23  
Since 1 July heating degree days 2730  
Cooling Degree Days 10 7  
Month to date cooling degree days 112  
Year to date cooling degree days 195  
Growing Degree Days 26 (Base 50)    
Moisture  
Dew Point 70 °F    
Average Humidity 93    
Maximum Humidity 100    
Minimum Humidity 64    
Precipitation  
Precipitation 0.66 in 0.11 in 2.20 in (1931)
Month to date precipitation 1.92  
Year to date precipitation 14.35  
Sea Level Pressure  
Sea Level Pressure 30.04 in    
Wind  
Wind Speed 2 mph (SSW)    
Max Wind Speed 10 mph    
Max Gust Speed 17 mph    
Visibility 9 miles    
Events Rain    
T = Trace of Precipitation, MM = Missing Value Source: NWS Daily Summary

Daily Weather History Graph

Daily Weather History Graph

Search for Another Location

Airport or City:

Trip Planner

Search our weather history database for the weather conditions in past years. The results will help you decide how hot, cold, wet, or windy it might be!

Date:

Astronomy

May. 21, 2013 Rise Set
Actual Time 6:05 AM EDT 8:14 PM EDT
Civil Twilight 5:37 AM EDT 8:43 PM EDT
Nautical Twilight 5:02 AM EDT 9:18 PM EDT
Astronomical Twilight 4:24 AM EDT 9:56 PM EDT
Moon 4:34 PM EDT (5/21) 3:23 AM EDT (5/21)
Length of Visible Light 15h 06m
Length of Day
14h 09m
Waxing Gibbous, 84% of the Moon is Illuminated
May 21
Waxing Gibbous
May 25
Full
May 31
Last Quarter
Jun 8
New
Jun 16
First Quarter

Hourly Weather History & Observations

Time (EDT) Temp. Heat Index Dew Point Humidity Pressure Visibility Wind Dir Wind Speed Gust Speed Precip Events Conditions
12:15 AM 68.2 °F - 68.2 °F 100% 30.06 in 5.0 mi Calm Calm - N/A   Scattered Clouds
12:35 AM 68.9 °F - 68.9 °F 100% 30.06 in 5.0 mi SSE 3.5 mph - N/A Rain Rain
12:55 AM 68.9 °F - 68.9 °F 100% 30.06 in 7.0 mi South 4.6 mph - N/A   Mostly Cloudy
1:15 AM 68.5 °F - 68.5 °F 100% 30.05 in 7.0 mi South 4.6 mph - N/A   Mostly Cloudy
1:35 AM 68.5 °F - 68.5 °F 100% 30.05 in 7.0 mi Calm Calm - N/A   Mostly Cloudy
1:55 AM 68.5 °F - 68.5 °F 100% 30.04 in 7.0 mi Calm Calm - N/A   Overcast
2:15 AM 68.5 °F - 68.5 °F 100% 30.04 in 5.0 mi Calm Calm - N/A Rain Rain
2:35 AM 68.5 °F - 68.5 °F 100% 30.04 in 7.0 mi Calm Calm - N/A   Light Drizzle
2:55 AM 68.5 °F - 68.5 °F 100% 30.04 in 7.0 mi Calm Calm - N/A   Overcast
3:15 AM 68.5 °F - 68.5 °F 100% 30.04 in 7.0 mi Calm Calm - N/A   Overcast
3:35 AM 68.9 °F - 68.9 °F 100% 30.03 in 10.0 mi Calm Calm - N/A   Overcast
3:55 AM 69.1 °F - 69.1 °F 100% 30.03 in 10.0 mi Calm Calm - N/A   Overcast
4:15 AM 68.9 °F - 68.9 °F 100% 30.03 in 7.0 mi Calm Calm - N/A   Overcast
4:35 AM 68.9 °F - 68.9 °F 100% 30.03 in 7.0 mi Calm Calm - N/A   Overcast
4:55 AM 68.9 °F - 68.9 °F 100% 30.04 in 7.0 mi Calm Calm - N/A   Overcast
5:15 AM 69.3 °F - 69.3 °F 100% 30.04 in 10.0 mi SSW 3.5 mph - N/A   Overcast
5:35 AM 69.4 °F - 69.3 °F 99% 30.05 in 10.0 mi Calm Calm - N/A   Overcast
5:55 AM 69.3 °F - 69.1 °F 99% 30.06 in 10.0 mi Calm Calm - N/A   Overcast
6:15 AM 69.1 °F - 68.9 °F 99% 30.06 in 10.0 mi SW 3.5 mph - N/A   Overcast
6:35 AM 68.9 °F - 68.9 °F 100% 30.07 in 10.0 mi Calm Calm - N/A   Mostly Cloudy
6:55 AM 68.9 °F - 68.5 °F 99% 30.07 in 10.0 mi Calm Calm - N/A Rain Light Rain
7:15 AM 68.9 °F - 68.9 °F 100% 30.07 in 10.0 mi Calm Calm - N/A   Overcast
7:35 AM 69.1 °F - 68.9 °F 99% 30.07 in 10.0 mi Calm Calm - N/A   Mostly Cloudy
7:55 AM 69.6 °F - 69.3 °F 99% 30.08 in 10.0 mi Calm Calm - N/A   Mostly Cloudy
8:15 AM 70.0 °F - 69.8 °F 99% 30.08 in 7.0 mi Calm Calm - N/A   Mostly Cloudy
8:35 AM 71.8 °F - 70.5 °F 96% 30.08 in 10.0 mi SSW 3.5 mph - N/A   Mostly Cloudy
8:55 AM 73.0 °F - 70.3 °F 91% 30.08 in 10.0 mi SW 3.5 mph - N/A   Scattered Clouds
9:15 AM 74.3 °F - 70.0 °F 86% 30.08 in 10.0 mi SW 6.9 mph - N/A   Scattered Clouds
9:35 AM 75.2 °F - 69.8 °F 83% 30.08 in 10.0 mi SSW 5.8 mph - N/A   Scattered Clouds
9:55 AM 75.9 °F - 69.8 °F 81% 30.07 in 10.0 mi SW 5.8 mph - N/A   Overcast
10:15 AM 75.4 °F - 69.8 °F 83% 30.07 in 10.0 mi SW 4.6 mph - N/A   Mostly Cloudy
10:35 AM 77.0 °F - 70.7 °F 81% 30.07 in 10.0 mi SW 5.8 mph - N/A   Mostly Cloudy
10:55 AM 77.5 °F - 70.7 °F 79% 30.08 in 10.0 mi West 6.9 mph - N/A   Mostly Cloudy
11:15 AM 77.7 °F - 70.5 °F 78% 30.08 in 10.0 mi WSW 5.8 mph - N/A   Scattered Clouds
11:35 AM 79.3 °F - 71.2 °F 76% 30.07 in 10.0 mi South 5.8 mph - N/A   Scattered Clouds
11:55 AM 79.0 °F - 70.9 °F 76% 30.07 in 10.0 mi SSE 5.8 mph - N/A   Mostly Cloudy
12:15 PM 80.1 °F 83.4 °F 70.5 °F 73% 30.07 in 10.0 mi SSW 8.1 mph - N/A   Mostly Cloudy
12:35 PM 80.6 °F 84.2 °F 70.7 °F 72% 30.06 in 10.0 mi WSW 5.8 mph - N/A   Scattered Clouds
12:55 PM 82.2 °F 86.4 °F 70.7 °F 68% 30.05 in 10.0 mi South 4.6 mph - N/A   Scattered Clouds
1:15 PM 83.3 °F 87.4 °F 69.8 °F 64% 30.04 in 10.0 mi South 4.6 mph - N/A   Scattered Clouds
1:35 PM 83.5 °F 88.0 °F 70.7 °F 65% 30.03 in 10.0 mi SSW 8.1 mph - N/A   Mostly Cloudy
1:55 PM 81.0 °F 84.6 °F 70.5 °F 70% 30.03 in 10.0 mi SW 4.6 mph - N/A   Mostly Cloudy
2:15 PM 83.5 °F 88.0 °F 70.7 °F 65% 30.02 in 10.0 mi South 5.8 mph - N/A   Scattered Clouds
2:35 PM 82.6 °F 86.6 °F 70.0 °F 66% 30.02 in 10.0 mi WSW 8.1 mph - N/A   Scattered Clouds
2:55 PM 77.4 °F - 69.8 °F 77% 30.03 in 10.0 mi South 10.4 mph 17.3 mph 0.02 in Rain Rain
3:15 PM 70.7 °F - 70.3 °F 99% 30.03 in 0.5 mi SE 4.6 mph - 0.61 in Rain Heavy Rain
3:35 PM 71.8 °F - 70.7 °F 96% 30.01 in 7.0 mi Calm Calm - 0.62 in Rain Light Rain
3:55 PM 72.5 °F - 70.5 °F 93% 30.03 in 10.0 mi Calm Calm - 0.62 in Rain Light Rain
4:15 PM 72.5 °F - 71.8 °F 98% 30.03 in 7.0 mi SSW 3.5 mph - 0.01 in Rain Light Rain
4:35 PM 72.1 °F - 71.2 °F 97% 30.02 in 7.0 mi SSW 3.5 mph - 0.01 in   Drizzle
4:55 PM 71.6 °F - 70.5 °F 96% 30.02 in 10.0 mi West 3.5 mph - 0.01 in   Light Drizzle
5:15 PM 71.1 °F - 70.3 °F 98% 30.02 in 10.0 mi Calm Calm - N/A   Clear
5:35 PM 71.1 °F - 70.5 °F 98% 30.02 in 7.0 mi SSW 3.5 mph - N/A Rain Light Rain
5:55 PM 71.6 °F - 70.7 °F 97% 30.02 in 7.0 mi Calm Calm - 0.01 in Rain Light Rain
6:15 PM 71.8 °F - 71.1 °F 98% 30.01 in 10.0 mi Calm Calm - N/A Rain Light Rain
6:35 PM 71.8 °F - 71.6 °F 99% 30.00 in 7.0 mi South 3.5 mph - N/A   Clear
6:55 PM 72.0 °F - 71.4 °F 98% 30.00 in 10.0 mi Calm Calm - N/A   Clear
7:15 PM 72.0 °F - 71.8 °F 99% 29.99 in 7.0 mi Calm Calm - N/A   Clear
7:35 PM 72.5 °F - 71.8 °F 98% 30.00 in 7.0 mi Calm Calm - N/A Rain Light Rain
7:55 PM 72.1 °F - 72.1 °F 100% 29.99 in 5.0 mi Calm Calm - N/A   Clear
8:15 PM 71.8 °F - 71.8 °F 100% 29.99 in 5.0 mi Calm Calm - N/A   Clear
8:35 PM 71.4 °F - 71.4 °F 100% 29.99 in 7.0 mi Calm Calm - N/A   Clear
8:55 PM 71.1 °F - 70.7 °F 99% 30.00 in 10.0 mi Calm Calm - N/A   Clear
9:15 PM 70.7 °F - 70.0 °F 98% 29.99 in 10.0 mi Calm Calm - N/A   Clear
9:35 PM 70.5 °F - 69.1 °F 95% 30.00 in 10.0 mi South 3.5 mph - N/A   Clear
9:55 PM 69.8 °F - 68.5 °F 96% 30.01 in 10.0 mi SSE 3.5 mph - N/A   Clear
10:15 PM 69.4 °F - 68.0 °F 95% 30.02 in 10.0 mi South 4.6 mph - N/A   Clear
10:35 PM 68.9 °F - 68.0 °F 97% 30.02 in 10.0 mi South 3.5 mph - N/A   Clear
10:55 PM 68.5 °F - 68.0 °F 98% 30.03 in 10.0 mi Calm Calm - N/A   Clear
11:15 PM 68.0 °F - 67.8 °F 99% 30.03 in 10.0 mi South 3.5 mph - N/A   Clear
11:35 PM 68.2 °F - 68.0 °F 99% 30.03 in 10.0 mi Calm Calm - N/A   Clear
11:55 PM 68.2 °F - 67.8 °F 99% 30.04 in 10.0 mi Calm Calm - N/A   Clear